Regional Weather Roundup
Issued by NWS

Home | Current Version | Previous Version | Graphics & Text | Print | Product List | Glossary On
Versions: 1 2 3 4 5 6 7 8 9 10 11 12 13 14 15 16 17 18 19 20 21 22 23 24 25 26 27 28 29 30 31 32 33 34 35 36 37 38 39 40 41 42 43 44 45 46 47 48 49 50
000
ASUS43 KMPX 010210
RWRMN
WEATHER ROUNDUP FOR MINNESOTA
NATIONAL WEATHER SERVICE TWIN CITIES/CHANHASSEN MN
900 PM CDT THU JUL 31 2014


NOTE: "FAIR" INDICATES FEW OR NO CLOUDS BELOW 12,000 FEET WITH NO
SIGNIFICANT WEATHER AND/OR OBSTRUCTIONS TO VISIBILITY. N/A MEANS
CURRENT SKY AND/OR WEATHER CONDITIONS ARE NOT AVAILABLE.

MNZ060>063-068>070-010300-
   Twin Cities Metro

CITY           SKY/WX    TMP DP  RH WIND       PRES   REMARKS
TWIN CITIES    CLEAR     76  55  48 W5        29.99S
ST PAUL        CLEAR     74  56  53 W5        29.99S
CRYSTAL        CLEAR     76  56  49 W5        29.98F
BLAINE         CLEAR     75  57  53 W3        29.99F
LAKEVILLE      CLEAR     70  59  68 SW5       30.01R
EDEN PRAIRIE   CLEAR     73  58  59 CALM      29.99S
SOUTH ST PAUL  CLEAR     75  56  51 W3        29.99S
LAKE ELMO      FAIR      68  61  77 CALM      30.00S
$$
MNZ001>005-007-008-013>017-022>024-027-028-010300-
   Northwest Minnesota

CITY           SKY/WX    TMP DP  RH WIND       PRES   REMARKS
BEMIDJI        CLEAR     70  59  69 CALM      30.01S
HALLOCK        CLEAR     73  64  73 CALM      29.98F
ROSEAU           N/A     70  61  73 NW5       29.99S
WARROAD        CLEAR     72  59  64 NW3       29.99S
THIEF RVR FALL CLEAR     73  63  68 N3        30.00S
CROOKSTON      CLEAR     75  64  69 CALM      29.99F
FOSSTON        CLEAR     66  57  72 CALM      30.01F
DETROIT LAKES  CLEAR     72  61  68 NW3       30.03S
MOORHEAD       PTCLDY    75  64  69 CALM      30.00S
PARK RAPIDS    CLEAR     70  60  70 NW3       30.01S
$$
MNZ006-009>011-018-025>026-010300-
   North Central Minnesota

CITY           SKY/WX    TMP DP  RH WIND       PRES   REMARKS
BAUDETTE       CLEAR     68  58  70 CALM      30.00S
FLAG ISLAND    PTCLDY    73  61  64 CALM      29.98R
INTL FALLS     PTCLDY    61  57  87 CALM      29.98S
WASKISH        CLEAR     66  61  82 CALM      30.00S
BIG FORK       CLEAR     63  55  77 CALM      30.01R
LONGVILLE      CLEAR     64  63  94 CALM      30.00S
GRAND RAPIDS   CLEAR     66  57  72 CALM      30.00S
CRANE LAKE     CLEAR     59  57  94 CALM      30.00R
ORR            CLEAR     61  54  77 CALM      29.97S
COOK           CLEAR     63  57  82 CALM      30.00R
$$
MNZ012-019>021-037-010300-
   Northeast Minnesota

CITY           SKY/WX    TMP DP  RH WIND       PRES   REMARKS
DULUTH         CLEAR     70  57  63 NW5       29.99R
ELY            CLEAR     63  54  72 CALM      29.99S
HIBBING        CLEAR     63  59  87 CALM      29.99S
EVELETH        CLEAR     63  55  77 CALM      30.01R
DULUTH HARBOR  CLEAR     73  61  64 CALM      29.96S
TWO HARBORS    CLEAR     64  55  72 CALM      29.96S
SILVER BAY     CLEAR     61  57  88 CALM      29.96S
GRAND MARAIS     N/A     52  49  89 CALM      29.95R
G MARAIS ARPRT CLEAR     57  46  67 NW5       30.00S
$$
MNZ029>031-032-039>041-046>048-054>057-064-010300-
   West Central Minnesota

CITY           SKY/WX    TMP DP  RH WIND       PRES   REMARKS
FERGUS FALLS   CLEAR     73  57  56 CALM      30.00S
WHEATON        CLEAR     70  61  73 CALM      30.03R
MORRIS         CLEAR     70  63  78 CALM      30.01S
ALEXANDRIA     CLEAR     72  60  66 W5        30.03S
ELBOW LAKE     FAIR      71  62  73 CALM      30.01S
WADENA         CLEAR     66  61  82 CALM      30.01S
GLENWOOD       CLEAR     70  61  73 W3        30.03S
APPLETON       CLEAR     70  61  73 CALM      30.01S
BENSON         CLEAR     68  61  77 CALM      30.02R
ORTONVILLE     CLEAR     70  61  73 CALM      30.02R
MADISON        CLEAR     73  63  68 CALM      30.02S
WILLMAR        FAIR      72  61  68 CALM      30.03S
$$
MNZ033>034-036-042>043-049>051-058-059-010300-
   Central Minnesota

CITY           SKY/WX    TMP DP  RH WIND       PRES   REMARKS
ST CLOUD       CLEAR     72  59  63 CALM      30.00R
SAUK CENTRE    FAIR      70  62  74 W3        30.02S
PAYNESVILLE    CLEAR     66  59  79 CALM      30.02S HAZE
AITKIN         CLEAR     68  61  77 CALM      29.99R
PINE RIVER     PTCLDY    70  61  73 CALM      30.04R
BRAINERD       MOCLDY    73  61  65 NW6       30.00R
STAPLES        CLEAR     70  59  68 CALM      30.01S
LONG PRAIRIE   FAIR      68  61  77 CALM      30.02S
LITTLE FALLS   CLEAR     68  59  73 CALM      30.01R
LITCHFIELD     CLEAR     72  61  68 CALM      30.02S
BUFFALO        CLEAR     73  59  59 CALM      30.01S
MAPLE LAKE     CLEAR     68  62  81 CALM      30.01S
$$
MNZ037-044-045-052-053-010300-
   East Central Minnesota

CITY           SKY/WX    TMP DP  RH WIND       PRES   REMARKS
PRINCETON      CLEAR     70  61  73 CALM      30.00R
MORA           PTCLDY    68  61  77 CALM      30.00S
CAMBRIDGE      CLEAR     72  59  64 CALM      29.98R
RUSH CITY      PTCLDY    69  62  79 CALM      29.99S
MOOSE LAKE     PTCLDY    66  64  94 CALM      29.97S
HINCKLEY       MOCLDY    73  63  68 W3        29.98S
CLOQUET        CLEAR     66  59  77 CALM      29.99S
MCGREGOR       CLEAR     70  63  78 CALM      30.00R
$$
MNZ071>073-080-081-089-090-097-098-010300-
   Southwest Minnesota

CITY           SKY/WX    TMP DP  RH WIND       PRES   REMARKS
MONTEVIDEO     CLEAR     72  57  60 CALM      30.03S
GRANITE FALLS  CLEAR     69  62  80 CALM      30.03S HAZE
CANBY          CLEAR     71  61  71 CALM      30.04S
MARSHALL       CLEAR     73  57  56 CALM      30.02S
REDWOOD FALLS  CLEAR     74  58  57 W3        30.02R
OLIVIA         CLEAR     72  61  68 CALM      30.02R
PIPESTONE      CLEAR     72  55  56 CALM      30.06R
WINDOM         CLEAR     70  61  73 CALM      30.05R
WORTHINGTON    MOCLDY    70  61  73 N3        30.06S
JACKSON        PTCLDY    70  61  73 CALM      30.06R
TRACY          CLEAR     68  61  76 CALM      30.04R
SLAYTON        CLEAR     71  58  62 CALM      30.06R
$$
MNZ065>067-074>077-082>085-091>093-010300-
   South Central Minnesota

CITY           SKY/WX    TMP DP  RH WIND       PRES   REMARKS
MANKATO        CLEAR     73  54  49 CALM      30.02S
NEW ULM        CLEAR     72  63  73 CALM      30.02S
ST JAMES       CLEAR     68  63  83 CALM      30.03S
FAIRMONT       PTCLDY    72  57  60 CALM      30.04R
GLENCOE        CLEAR     73  59  62 SW3       30.01R
FARIBAULT      CLEAR     68  59  73 CALM      30.02S
OWATONNA       CLEAR     66  59  77 CALM      30.03R
WASECA         CLEAR     63  55  77 CALM      30.04S
ALBERT LEA     CLEAR     68  59  73 CALM      30.03S
$$
MNZ078>079-086>088-094>096-010300-
   Southeast Minnesota

CITY           SKY/WX    TMP DP  RH WIND       PRES   REMARKS
ROCHESTER      CLEAR     67  59  75 W6        30.04R
RED WING       CLEAR     70  63  78 CALM      29.98S
STANTON        CLEAR     70  60  70 S3        30.00R
DODGE CENTER   PTCLDY    68  61  77 W3        30.03S
WINONA         CLEAR     70  59  68 CALM      30.01R
AUSTIN         CLEAR     70  55  60 CALM      30.03S
PRESTON        CLEAR     68  62  79 W6        30.04S
$$
ABBREVIATIONS USED IN REMARKS
   TC - TEMPERATURES IN CELSIUS
  WCI - WIND CHILL INDEX
   HX - HEAT INDEX
  VSB - VISIBILITY
$$


USA.gov is the U.S. government's official web portal to all federal, state and local government web resources and services.